Time,TemperatureF,DewpointF,PressureIn,WindDirection,WindDirectionDegrees,WindSpeedMPH,WindSpeedGustMPH,Humidity,HourlyPrecipIn,Conditions,Clouds,dailyrainin,SolarRadiationWatts/m^2,SoftwareType,DateUTC
2013-01-23 00:02:00,8.0,4.0,29.55,SW,227,1.0,3.0,85,-99.99,,,-99.99,0.100000,,2013-01-23 09:02:00,
2013-01-23 00:12:00,8.0,4.0,29.55,SW,236,1.0,3.0,85,-99.99,,,-99.99,0.100000,,2013-01-23 09:12:00,
2013-01-23 00:22:00,8.0,4.0,29.55,SW,233,1.0,3.0,86,-99.99,,,-99.99,0.100000,,2013-01-23 09:22:00,
2013-01-23 00:32:00,8.0,4.0,29.54,SW,220,0.0,2.0,85,-99.99,,,-99.99,0.100000,,2013-01-23 09:32:00,
2013-01-23 00:52:00,8.0,5.0,29.54,South,183,2.0,3.0,85,-99.99,,,-99.99,0.100000,,2013-01-23 09:52:00,
2013-01-23 01:02:00,8.0,4.0,29.54,South,172,1.0,2.0,86,-99.99,,,-99.99,0.100000,,2013-01-23 10:02:00,
2013-01-23 01:12:00,7.0,4.0,29.53,South,186,1.0,3.0,87,-99.99,,,-99.99,0.000000,,2013-01-23 10:12:00,
2013-01-23 01:22:00,7.0,4.0,29.53,South,182,1.0,2.0,86,-99.99,,,-99.99,0.100000,,2013-01-23 10:22:00,
2013-01-23 01:32:00,6.0,3.0,29.53,South,175,0.0,1.0,87,-99.99,,,-99.99,0.000000,,2013-01-23 10:32:00,
2013-01-23 01:42:00,6.0,3.0,29.53,South,175,0.0,1.0,87,-99.99,,,-99.99,0.000000,,2013-01-23 10:42:00,
2013-01-23 01:52:00,6.0,3.0,29.53,SSW,203,1.0,2.0,86,-99.99,,,-99.99,0.100000,,2013-01-23 10:52:00,
2013-01-23 02:02:00,7.0,3.0,29.53,SSW,195,1.0,3.0,85,-99.99,,,-99.99,0.000000,,2013-01-23 11:02:00,
2013-01-23 02:11:00,7.0,4.0,29.53,SSW,205,1.0,3.0,84,-99.99,,,-99.99,0.100000,,2013-01-23 11:11:00,
2013-01-23 02:22:00,7.0,4.0,29.52,SSW,201,2.0,2.0,85,-99.99,,,-99.99,0.100000,,2013-01-23 11:22:00,
2013-01-23 02:42:00,7.0,4.0,29.52,SSW,208,2.0,3.0,86,-99.99,,,-99.99,0.100000,,2013-01-23 11:42:00,
2013-01-23 02:52:00,8.0,4.0,29.52,SSW,201,2.0,4.0,85,-99.99,,,-99.99,0.000000,,2013-01-23 11:52:00,
2013-01-23 03:02:00,8.0,4.0,29.52,SSW,200,3.0,5.0,84,-99.99,,,-99.99,0.000000,,2013-01-23 12:02:00,
2013-01-23 03:12:00,8.0,5.0,29.52,SSW,211,3.0,5.0,85,-99.99,,,-99.99,0.000000,,2013-01-23 12:12:00,
2013-01-23 03:22:00,8.0,5.0,29.52,SW,228,1.0,4.0,86,-99.99,,,-99.99,0.100000,,2013-01-23 12:22:00,
2013-01-23 03:32:00,8.0,5.0,29.52,SW,233,1.0,2.0,86,-99.99,,,-99.99,0.100000,,2013-01-23 12:32:00,
2013-01-23 03:42:00,8.0,5.0,29.52,SW,233,1.0,2.0,86,-99.99,,,-99.99,0.100000,,2013-01-23 12:42:00,
2013-01-23 03:52:00,8.0,4.0,29.52,WSW,238,1.0,3.0,85,-99.99,,,-99.99,0.100000,,2013-01-23 12:52:00,
2013-01-23 04:03:00,8.0,5.0,29.50,SW,218,0.0,3.0,86,-99.99,,,-99.99,0.000000,,2013-01-23 13:03:00,
2013-01-23 04:12:00,8.0,5.0,29.50,SW,221,0.0,2.0,85,-99.99,,,-99.99,0.000000,,2013-01-23 13:12:00,
2013-01-23 04:22:00,8.0,5.0,29.49,SSW,210,0.0,2.0,86,-99.99,,,-99.99,0.100000,,2013-01-23 13:22:00,
2013-01-23 04:33:00,8.0,5.0,29.49,SW,214,0.0,2.0,85,-99.99,,,-99.99,0.200000,,2013-01-23 13:33:00,
2013-01-23 04:42:00,8.0,5.0,29.49,SW,214,0.0,2.0,85,-99.99,,,-99.99,0.200000,,2013-01-23 13:42:00,
2013-01-23 04:52:00,8.0,5.0,29.49,WSW,239,0.0,1.0,86,-99.99,,,-99.99,0.100000,,2013-01-23 13:52:00,
2013-01-23 05:02:00,8.0,5.0,29.49,SSW,208,0.0,1.0,86,-99.99,,,-99.99,0.100000,,2013-01-23 14:02:00,
2013-01-23 05:12:00,9.0,5.0,29.49,SW,215,1.0,2.0,86,-99.99,,,-99.99,0.100000,,2013-01-23 14:12:00,
2013-01-23 05:23:00,8.0,5.0,29.48,SSW,207,0.0,2.0,87,-99.99,,,-99.99,0.200000,,2013-01-23 14:23:00,
2013-01-23 05:33:00,8.0,5.0,29.48,SSW,207,0.0,2.0,87,-99.99,,,-99.99,0.200000,,2013-01-23 14:33:00,
2013-01-23 05:42:00,8.0,5.0,29.48,SSW,207,0.0,2.0,87,-99.99,,,-99.99,0.200000,,2013-01-23 14:42:00,
2013-01-23 05:52:00,9.0,5.0,29.48,SSW,205,2.0,4.0,85,-99.99,,,-99.99,0.100000,,2013-01-23 14:52:00,
2013-01-23 06:02:00,9.0,5.0,29.48,SW,215,2.0,3.0,85,-99.99,,,-99.99,0.100000,,2013-01-23 15:02:00,
2013-01-23 06:12:00,9.0,6.0,29.48,SW,226,0.0,3.0,87,-99.99,,,-99.99,0.100000,,2013-01-23 15:12:00,
2013-01-23 06:22:00,8.0,5.0,29.47,SSW,208,0.0,2.0,87,-99.99,,,-99.99,0.100000,,2013-01-23 15:22:00,
2013-01-23 06:33:00,8.0,5.0,29.47,SW,233,0.0,2.0,87,-99.99,,,-99.99,0.100000,,2013-01-23 15:33:00,
2013-01-23 06:43:00,8.0,5.0,29.47,SW,233,0.0,2.0,87,-99.99,,,-99.99,0.100000,,2013-01-23 15:43:00,
2013-01-23 06:52:00,8.0,4.0,29.47,SW,222,1.0,3.0,86,-99.99,,,-99.99,0.100000,,2013-01-23 15:52:00,
2013-01-23 07:02:00,8.0,4.0,29.47,SW,222,1.0,3.0,86,-99.99,,,-99.99,0.100000,,2013-01-23 16:02:00,
2013-01-23 07:12:00,8.0,4.0,29.46,SW,221,1.0,3.0,86,-99.99,,,-99.99,0.100000,,2013-01-23 16:12:00,
2013-01-23 07:22:00,8.0,4.0,29.46,SW,217,1.0,2.0,85,-99.99,,,-99.99,0.000000,,2013-01-23 16:22:00,
2013-01-23 07:32:00,8.0,5.0,29.46,SSW,202,1.0,3.0,84,-99.99,,,-99.99,0.000000,,2013-01-23 16:32:00,
2013-01-23 07:42:00,8.0,5.0,29.46,SSW,202,1.0,3.0,84,-99.99,,,-99.99,0.000000,,2013-01-23 16:42:00,
2013-01-23 07:52:00,8.0,5.0,29.46,SSW,208,1.0,2.0,85,-99.99,,,-99.99,0.000000,,2013-01-23 16:52:00,
2013-01-23 08:02:00,8.0,5.0,29.46,SSW,204,1.0,2.0,85,-99.99,,,-99.99,0.000000,,2013-01-23 17:02:00,
2013-01-23 08:12:00,8.0,5.0,29.46,SSW,208,1.0,3.0,85,-99.99,,,-99.99,0.000000,,2013-01-23 17:12:00,
2013-01-23 08:22:00,9.0,5.0,29.46,SSW,207,1.0,2.0,85,-99.99,,,-99.99,0.100000,,2013-01-23 17:22:00,
2013-01-23 08:33:00,9.0,5.0,29.46,SW,214,1.0,3.0,86,-99.99,,,-99.99,0.100000,,2013-01-23 17:33:00,
2013-01-23 08:42:00,9.0,5.0,29.46,SW,214,1.0,3.0,86,-99.99,,,-99.99,0.100000,,2013-01-23 17:42:00,
2013-01-23 08:52:00,8.0,6.0,29.46,WSW,240,0.0,2.0,87,-99.99,,,-99.99,0.000000,,2013-01-23 17:52:00,
2013-01-23 09:03:00,8.0,5.0,29.46,WSW,244,0.0,1.0,87,-99.99,,,-99.99,0.100000,,2013-01-23 18:03:00,
2013-01-23 09:12:00,9.0,5.0,29.46,North,0,0.0,0.0,86,-99.99,,,-99.99,0.100000,,2013-01-23 18:12:00,
2013-01-23 09:23:00,9.0,5.0,29.46,SSW,210,0.0,1.0,86,-99.99,,,-99.99,0.000000,,2013-01-23 18:23:00,
2013-01-23 09:32:00,9.0,5.0,29.46,SSW,210,0.0,1.0,86,-99.99,,,-99.99,0.000000,,2013-01-23 18:32:00,
2013-01-23 09:42:00,9.0,6.0,29.46,North,0,0.0,0.0,87,-99.99,,,-99.99,0.200000,,2013-01-23 18:42:00,
2013-01-23 09:52:00,9.0,6.0,29.46,North,0,0.0,0.0,87,-99.99,,,-99.99,0.400000,,2013-01-23 18:52:00,
2013-01-23 10:02:00,8.0,6.0,29.46,North,0,0.0,0.0,88,-99.99,,,-99.99,0.600000,,2013-01-23 19:02:00,
2013-01-23 10:12:00,9.0,6.0,29.45,North,0,0.0,0.0,87,-99.99,,,-99.99,1.200000,,2013-01-23 19:12:00,
2013-01-23 10:22:00,9.0,6.0,29.45,North,0,0.0,0.0,87,-99.99,,,-99.99,1.500000,,2013-01-23 19:22:00,
2013-01-23 10:32:00,9.0,6.0,29.45,North,0,0.0,0.0,87,-99.99,,,-99.99,1.400000,,2013-01-23 19:32:00,
2013-01-23 10:42:00,9.0,6.0,29.45,North,0,0.0,0.0,87,-99.99,,,-99.99,1.400000,,2013-01-23 19:42:00,
2013-01-23 10:52:00,9.0,6.0,29.45,North,0,0.0,0.0,86,-99.99,,,-99.99,1.800000,,2013-01-23 19:52:00,
2013-01-23 11:02:00,8.0,6.0,29.45,North,1,0.0,1.0,90,-99.99,,,-99.99,2.200000,,2013-01-23 20:02:00,
2013-01-23 11:12:00,8.0,6.0,29.45,North,1,0.0,1.0,90,-99.99,,,-99.99,2.200000,,2013-01-23 20:12:00,
2013-01-23 11:22:00,9.0,6.0,29.45,North,0,0.0,0.0,86,-99.99,,,-99.99,3.000000,,2013-01-23 20:22:00,
2013-01-23 11:32:00,9.0,6.0,29.44,North,0,0.0,0.0,87,-99.99,,,-99.99,3.800000,,2013-01-23 20:32:00,
2013-01-23 11:42:00,9.0,6.0,29.44,North,0,0.0,0.0,87,-99.99,,,-99.99,3.800000,,2013-01-23 20:42:00,
2013-01-23 11:53:00,8.0,6.0,29.44,North,0,0.0,0.0,89,-99.99,,,-99.99,5.000000,,2013-01-23 20:53:00,
2013-01-23 12:02:00,9.0,6.0,29.44,SSW,198,1.0,2.0,89,-99.99,,,-99.99,5.600000,,2013-01-23 21:02:00,
2013-01-23 12:12:00,9.0,6.0,29.44,SSW,201,0.0,0.0,86,-99.99,,,-99.99,6.500000,,2013-01-23 21:12:00,
2013-01-23 12:22:00,10.0,7.0,29.44,North,0,0.0,0.0,88,-99.99,,,-99.99,6.100000,,2013-01-23 21:22:00,
2013-01-23 12:33:00,10.0,7.0,29.44,North,0,0.0,0.0,88,-99.99,,,-99.99,6.100000,,2013-01-23 21:33:00,
2013-01-23 12:42:00,10.0,7.0,29.44,North,0,0.0,0.0,89,-99.99,,,-99.99,5.600000,,2013-01-23 21:42:00,
2013-01-23 12:52:00,10.0,8.0,29.43,North,0,0.0,0.0,90,-99.99,,,-99.99,5.000000,,2013-01-23 21:52:00,
2013-01-23 13:02:00,10.0,7.0,29.43,North,0,0.0,0.0,89,-99.99,,,-99.99,4.500000,,2013-01-23 22:02:00,
2013-01-23 13:12:00,10.0,7.0,29.43,North,0,0.0,0.0,89,-99.99,,,-99.99,4.200000,,2013-01-23 22:12:00,
2013-01-23 13:22:00,10.0,7.0,29.43,SSW,203,0.0,0.0,89,-99.99,,,-99.99,4.100000,,2013-01-23 22:22:00,
2013-01-23 13:33:00,10.0,7.0,29.43,North,0,0.0,0.0,89,-99.99,,,-99.99,4.100000,,2013-01-23 22:33:00,
2013-01-23 13:42:00,10.0,7.0,29.43,North,0,0.0,0.0,89,-99.99,,,-99.99,4.100000,,2013-01-23 22:42:00,
2013-01-23 13:52:00,9.0,7.0,29.43,North,0,0.0,0.0,88,-99.99,,,-99.99,4.400000,,2013-01-23 22:52:00,
2013-01-23 14:02:00,9.0,7.0,29.43,WNW,302,0.0,1.0,87,-99.99,,,-99.99,5.000000,,2013-01-23 23:02:00,
2013-01-23 14:12:00,9.0,7.0,29.43,North,0,0.0,0.0,87,-99.99,,,-99.99,4.500000,,2013-01-23 23:12:00,
2013-01-23 14:22:00,10.0,7.0,29.42,North,0,0.0,0.0,87,-99.99,,,-99.99,4.000000,,2013-01-23 23:22:00,
2013-01-23 14:33:00,10.0,7.0,29.42,WNW,302,0.0,1.0,87,-99.99,,,-99.99,4.100000,,2013-01-23 23:33:00,
2013-01-23 14:42:00,10.0,7.0,29.42,WNW,302,0.0,1.0,87,-99.99,,,-99.99,4.100000,,2013-01-23 23:42:00,
2013-01-23 14:52:00,9.0,7.0,29.42,NW,322,0.0,1.0,87,-99.99,,,-99.99,4.200000,,2013-01-23 23:52:00,
2013-01-23 15:02:00,9.0,7.0,29.42,NNW,340,0.0,1.0,87,-99.99,,,-99.99,3.800000,,2013-01-24 00:02:00,
2013-01-23 15:12:00,9.0,7.0,29.42,North,0,0.0,0.0,87,-99.99,,,-99.99,3.400000,,2013-01-24 00:12:00,
2013-01-23 15:22:00,9.0,7.0,29.42,North,0,0.0,0.0,87,-99.99,,,-99.99,3.400000,,2013-01-24 00:22:00,
2013-01-23 15:32:00,9.0,7.0,29.41,NNW,336,0.0,1.0,87,-99.99,,,-99.99,2.800000,,2013-01-24 00:32:00,
2013-01-23 15:42:00,9.0,7.0,29.41,NNW,336,0.0,1.0,87,-99.99,,,-99.99,2.800000,,2013-01-24 00:42:00,
2013-01-23 15:52:00,9.0,6.0,29.42,NW,309,0.0,1.0,87,-99.99,,,-99.99,2.300000,,2013-01-24 00:52:00,
2013-01-23 16:02:00,9.0,6.0,29.41,NW,321,0.0,1.0,87,-99.99,,,-99.99,1.700000,,2013-01-24 01:02:00,
2013-01-23 16:12:00,9.0,6.0,29.41,NW,324,0.0,1.0,87,-99.99,,,-99.99,1.400000,,2013-01-24 01:12:00,
2013-01-23 16:22:00,9.0,6.0,29.41,North,0,0.0,0.0,87,-99.99,,,-99.99,0.900000,,2013-01-24 01:22:00,
2013-01-23 16:32:00,9.0,6.0,29.41,North,0,0.0,0.0,87,-99.99,,,-99.99,0.600000,,2013-01-24 01:32:00,
2013-01-23 16:42:00,9.0,6.0,29.41,North,0,0.0,0.0,87,-99.99,,,-99.99,0.600000,,2013-01-24 01:42:00,
2013-01-23 16:52:00,9.0,6.0,29.41,North,0,0.0,0.0,87,-99.99,,,-99.99,0.300000,,2013-01-24 01:52:00,
2013-01-23 17:02:00,9.0,6.0,29.41,North,0,0.0,0.0,87,-99.99,,,-99.99,0.200000,,2013-01-24 02:02:00,
2013-01-23 17:12:00,9.0,6.0,29.42,NW,323,0.0,0.0,87,-99.99,,,-99.99,0.200000,,2013-01-24 02:12:00,
2013-01-23 17:22:00,9.0,6.0,29.42,North,0,0.0,0.0,87,-99.99,,,-99.99,0.200000,,2013-01-24 02:22:00,
2013-01-23 17:32:00,9.0,6.0,29.42,North,0,0.0,0.0,87,-99.99,,,-99.99,0.200000,,2013-01-24 02:32:00,
2013-01-23 17:42:00,9.0,6.0,29.42,North,0,0.0,0.0,87,-99.99,,,-99.99,0.200000,,2013-01-24 02:42:00,
2013-01-23 17:52:00,9.0,6.0,29.42,North,0,0.0,0.0,87,-99.99,,,-99.99,0.200000,,2013-01-24 02:52:00,
2013-01-23 18:02:00,8.0,5.0,29.42,North,0,0.0,0.0,87,-99.99,,,-99.99,0.200000,,2013-01-24 03:02:00,
2013-01-23 18:12:00,8.0,5.0,29.42,North,0,0.0,0.0,87,-99.99,,,-99.99,0.100000,,2013-01-24 03:12:00,
2013-01-23 18:22:00,8.0,5.0,29.42,North,0,0.0,0.0,87,-99.99,,,-99.99,0.200000,,2013-01-24 03:22:00,
2013-01-23 18:32:00,8.0,5.0,29.41,North,0,0.0,0.0,87,-99.99,,,-99.99,0.200000,,2013-01-24 03:32:00,
2013-01-23 18:42:00,8.0,5.0,29.41,North,0,0.0,0.0,87,-99.99,,,-99.99,0.200000,,2013-01-24 03:42:00,
2013-01-23 18:52:00,8.0,5.0,29.41,North,0,0.0,0.0,87,-99.99,,,-99.99,0.100000,,2013-01-24 03:52:00,
2013-01-23 19:02:00,8.0,5.0,29.42,North,0,0.0,0.0,87,-99.99,,,-99.99,0.100000,,2013-01-24 04:02:00,
2013-01-23 19:12:00,8.0,5.0,29.41,North,0,0.0,0.0,87,-99.99,,,-99.99,0.200000,,2013-01-24 04:12:00,
2013-01-23 19:22:00,8.0,5.0,29.42,North,0,0.0,0.0,86,-99.99,,,-99.99,0.200000,,2013-01-24 04:22:00,
2013-01-23 19:32:00,7.0,5.0,29.42,North,0,0.0,0.0,88,-99.99,,,-99.99,0.200000,,2013-01-24 04:32:00,
2013-01-23 19:42:00,7.0,5.0,29.42,North,0,0.0,0.0,88,-99.99,,,-99.99,0.200000,,2013-01-24 04:42:00,
2013-01-23 19:52:00,7.0,4.0,29.42,North,0,0.0,0.0,88,-99.99,,,-99.99,0.100000,,2013-01-24 04:52:00,
2013-01-23 20:03:00,7.0,4.0,29.42,North,0,0.0,0.0,87,-99.99,,,-99.99,0.100000,,2013-01-24 05:03:00,
2013-01-23 20:12:00,7.0,4.0,29.42,North,0,0.0,0.0,86,-99.99,,,-99.99,0.200000,,2013-01-24 05:12:00,
2013-01-23 20:22:00,7.0,4.0,29.42,North,0,0.0,0.0,86,-99.99,,,-99.99,0.200000,,2013-01-24 05:22:00,
2013-01-23 20:32:00,7.0,4.0,29.42,North,0,0.0,0.0,86,-99.99,,,-99.99,0.200000,,2013-01-24 05:32:00,
2013-01-23 20:42:00,7.0,4.0,29.42,North,0,0.0,0.0,86,-99.99,,,-99.99,0.200000,,2013-01-24 05:42:00,
2013-01-23 20:52:00,7.0,4.0,29.42,North,0,0.0,0.0,86,-99.99,,,-99.99,0.100000,,2013-01-24 05:52:00,
2013-01-23 21:02:00,7.0,4.0,29.42,North,0,0.0,0.0,86,-99.99,,,-99.99,0.100000,,2013-01-24 06:02:00,
2013-01-23 21:12:00,7.0,4.0,29.43,North,0,0.0,0.0,86,-99.99,,,-99.99,0.100000,,2013-01-24 06:12:00,
2013-01-23 21:22:00,7.0,4.0,29.43,North,0,0.0,0.0,86,-99.99,,,-99.99,0.200000,,2013-01-24 06:22:00,
2013-01-23 21:32:00,7.0,4.0,29.43,North,0,0.0,0.0,86,-99.99,,,-99.99,0.200000,,2013-01-24 06:32:00,
2013-01-23 21:42:00,7.0,4.0,29.43,North,0,0.0,0.0,86,-99.99,,,-99.99,0.200000,,2013-01-24 06:42:00,
2013-01-23 21:52:00,7.0,4.0,29.43,North,0,0.0,0.0,86,-99.99,,,-99.99,0.200000,,2013-01-24 06:52:00,
2013-01-23 22:02:00,7.0,4.0,29.43,North,0,0.0,0.0,86,-99.99,,,-99.99,0.100000,,2013-01-24 07:02:00,
2013-01-23 22:12:00,7.0,4.0,29.43,North,0,0.0,0.0,86,-99.99,,,-99.99,0.100000,,2013-01-24 07:12:00,
2013-01-23 22:22:00,7.0,4.0,29.43,North,0,0.0,0.0,86,-99.99,,,-99.99,0.200000,,2013-01-24 07:22:00,
2013-01-23 22:32:00,7.0,4.0,29.44,North,0,0.0,0.0,86,-99.99,,,-99.99,0.100000,,2013-01-24 07:32:00,
2013-01-23 22:42:00,7.0,4.0,29.44,North,0,0.0,0.0,86,-99.99,,,-99.99,0.100000,,2013-01-24 07:42:00,
2013-01-23 22:52:00,6.0,3.0,29.44,North,0,0.0,0.0,86,-99.99,,,-99.99,0.200000,,2013-01-24 07:52:00,
2013-01-23 23:02:00,6.0,3.0,29.44,North,0,0.0,0.0,86,-99.99,,,-99.99,0.100000,,2013-01-24 08:02:00,
2013-01-23 23:12:00,6.0,3.0,29.44,North,0,0.0,0.0,86,-99.99,,,-99.99,0.200000,,2013-01-24 08:12:00,
2013-01-23 23:22:00,6.0,3.0,29.44,North,0,0.0,0.0,86,-99.99,,,-99.99,0.200000,,2013-01-24 08:22:00,
2013-01-23 23:32:00,6.0,3.0,29.45,North,0,0.0,0.0,86,-99.99,,,-99.99,0.200000,,2013-01-24 08:32:00,
2013-01-23 23:42:00,6.0,3.0,29.45,North,0,0.0,0.0,86,-99.99,,,-99.99,0.200000,,2013-01-24 08:42:00,
2013-01-23 23:52:00,6.0,3.0,29.44,North,0,0.0,0.0,86,-99.99,,,-99.99,0.200000,,2013-01-24 08:52:00,